Temperature
15 14 14 14 13 13 13 13 13 12 12 12 12 12 12 12 12 12 11 11 10 10 9 9 9 9 9 8 8 8 8 8 9 9 9 9 9 9 9 9 8 9 9
15 14 14 13 13 13 13 12 12 12 12 12 12 12 12 12 12 12 11 11 10 10 9 9 9 9 8 8 8 8 8 8 8 8 8 8 8 8 8 7 7 7 7
15 14 14 13 13 13 12 12 12 12 12 12 12 12 12 12 12 11 11 10 10 9 9 9 9 8 8 8 7 7 7 7 7 7 7 7 7 7 7 6 6 6 6
15 14 14 13 13 12 12 12 12 12 11 12 12 12 12 12 12 11 11 10 10 9 9 8 8 8 8 8 7 7 7 7 7 7 6 6 6 6 5 5 5 5 5
15 14 14 13 13 12 12 12 11 11 11 11 11 11 12 12 11 11 11 10 9 9 8 8 8 8 8 7 7 7 7 6 6 6 6 5 5 4 4 4 4 4 4
15 14 14 13 13 12 12 11 11 11 11 11 11 11 11 11 11 11 11 10 9 9 8 8 8 7 7 7 7 7 6 6 6 5 5 4 3 3 3 3 3 3 3
15 14 14 13 13 12 12 12 11 11 11 11 11 11 11 11 11 11 10 10 9 9 8 7 7 7 7 7 6 6 6 6 5 5 3 3 2 2 2 2 2 2 2
15 15 14 14 13 13 12 12 11 11 11 11 11 11 11 11 11 11 10 10 9 8 8 7 7 6 6 6 6 5 5 5 5 4 2 2 1 1 1 1 1 2 2
16 15 15 14 14 13 13 12 12 11 11 11 11 11 11 11 11 10 10 10 9 8 7 7 6 6 5 5 5 5 4 4 4 3 2 1 1 1 1 1 1 1 1
16 15 15 15 14 14 13 13 12 12 11 11 11 11 11 11 10 10 9 9 9 8 7 6 6 5 5 5 4 4 4 3 3 2 1 1 0 0 0 0 0 1 1
16 15 15 15 15 14 13 13 12 12 11 11 11 11 10 10 10 9 9 9 8 8 7 6 5 5 4 4 4 3 3 3 2 1 1 -0 -1 -1 -1 -1 -0 -0 -0
15 15 15 15 15 14 14 13 12 11 11 11 10 10 10 10 9 9 8 8 8 7 6 6 5 4 4 4 3 2 2 2 1 1 0 -1 -1 -2 -2 -2 -2 -2 -2
15 15 15 15 14 14 13 13 12 11 11 10 10 9 9 8 8 8 8 7 6 6 5 5 5 4 3 3 2 1 1 0 0 0 -0 -1 -2 -2 -2 -3 -3 -3 -3
15 15 14 14 14 13 13 12 11 11 10 9 9 8 8 7 7 7 6 5 5 4 4 4 4 3 2 1 0 -0 -0 -1 -1 -1 -1 -1 -2 -2 -3 -3 -4 -4 -4
14 14 14 13 13 13 12 11 11 10 9 8 7 7 7 6 6 5 5 4 3 2 2 3 2 2 1 -0 -1 -1 -1 -2 -2 -2 -2 -2 -3 -4 -4 -4 -4 -5 -5
12 12 12 12 12 12 11 10 9 9 8 7 6 6 5 5 4 4 4 3 2 1 0 1 1 0 -0 -0 -1 -2 -2 -3 -3 -3 -3 -3 -4 -5 -5 -5 -5 -5 -5
11 11 11 11 11 10 9 9 8 7 6 5 5 4 4 3 3 3 2 2 1 0 -0 -0 -1 -1 -1 -1 -2 -2 -3 -3 -3 -3 -3 -4 -4 -5 -5 -5 -6 -6 -6
9 9 9 9 9 8 8 7 6 5 5 4 4 3 2 2 2 2 1 0 -0 -1 -1 -2 -2 -2 -2 -3 -3 -4 -4 -4 -4 -4 -4 -4 -5 -5 -5 -5 -6 -6 -6
8 8 8 8 8 7 6 5 4 4 3 3 3 2 2 1 1 1 -0 -0 -1 -2 -2 -3 -3 -4 -4 -4 -5 -5 -5 -5 -5 -4 -4 -4 -5 -5 -5 -6 -6 -6 -6
7 7 7 6 6 5 4 3 3 3 2 2 2 1 1 1 0 -0 -1 -1 -2 -2 -3 -4 -5 -5 -5 -5 -6 -7 -7 -6 -5 -5 -5 -5 -5 -5 -5 -5 -5 -5 -5
6 5 5 4 4 3 2 2 2 2 2 1 1 1 0 -0 -1 -1 -2 -2 -3 -4 -4 -5 -6 -6 -6 -7 -7 -8 -8 -7 -7 -6 -5 -5 -5 -5 -5 -5 -5 -5 -5
3 3 3 2 2 2 1 1 1 1 1 1 0 -0 -1 -1 -2 -2 -3 -4 -4 -5 -6 -7 -7 -7 -7 -7 -8 -8 -8 -9 -9 -7 -7 -7 -6 -6 -5 -5 -5 -5 -5
1 1 1 1 1 1 1 1 1 0 0 -0 -1 -1 -2 -2 -3 -3 -4 -4 -4 -5 -7 -8 -8 -8 -8 -8 -8 -8 -9 -9 -9 -8 -8 -7 -6 -6 -6 -6 -5 -5 -5
0 0 0 0 0 0 0 -0 -0 -0 -1 -1 -2 -2 -3 -3 -3 -4 -4 -5 -5 -6 -6 -7 -7 -8 -8 -8 -9 -9 -9 -9 -8 -7 -7 -8 -6 -6 -6 -6 -5 -5 -5
-0 -0 -0 -0 -0 -0 -1 -1 -1 -1 -2 -2 -3 -3 -4 -4 -4 -5 -7 -7 -6 -6 -7 -7 -7 -7 -8 -8 -8 -8 -8 -8 -8 -8 -7 -8 -7 -7 -7 -6 -5 -5 -6
-0 -0 -1 -1 -1 -1 -2 -2 -2 -2 -3 -3 -3 -4 -5 -5 -6 -7 -8 -8 -7 -7 -7 -6 -6 -7 -7 -7 -7 -8 -8 -8 -9 -9 -8 -9 -9 -9 -9 -8 -7 -6 -6
Wind_Speed
6 7 7 8 8 7 7 6 7 7 7 7 7 8 7 7 7 8 8 10 11 10 9 8 7 7 7 7 7 7 8 8 8 8 9 9 9 10 10 10 11 11 11
10 8 6 7 8 9 9 8 8 7 6 6 6 6 7 7 7 8 9 10 11 10 8 7 7 7 6 6 7 7 7 7 7 7 8 8 9 9 10 10 10 11 11
13 10 6 6 9 11 10 9 7 7 5 4 4 5 5 6 7 7 8 9 9 9 8 7 6 6 6 6 6 7 7 7 7 7 7 8 8 9 9 10 10 11 12
17 12 7 7 11 12 10 6 5 4 4 4 3 3 3 4 5 6 7 8 8 8 7 6 6 5 5 5 6 7 7 7 7 7 7 8 8 9 10 10 11 12 13
19 14 9 9 13 9 6 6 4 4 4 4 4 3 2 2 4 5 5 6 6 6 6 5 5 4 4 4 5 7 7 7 8 8 8 8 9 10 10 11 12 13 14
20 16 10 11 12 7 7 6 5 3 3 5 4 3 2 1 2 3 4 5 5 5 5 5 4 3 4 4 5 7 8 9 9 9 9 10 11 11 12 13 14 15 16
19 16 9 10 10 10 11 10 6 5 3 4 4 2 2 2 1 1 3 3 4 5 5 4 3 2 2 4 5 7 9 9 10 10 11 12 13 14 14 15 16 17 17
18 16 13 12 12 10 10 11 7 5 3 4 4 3 2 1 1 1 1 3 3 4 5 5 3 1 1 3 5 6 7 9 10 12 13 14 15 16 17 18 19 19 19
18 16 15 13 14 13 13 13 11 10 6 3 2 4 5 5 2 0 0 1 2 2 3 4 3 2 1 1 3 5 7 9 11 14 15 16 17 19 20 20 21 21 21
16 17 15 14 15 13 13 14 11 7 8 5 2 1 2 3 4 3 1 1 1 3 3 3 2 2 2 3 3 5 8 10 13 15 17 19 20 21 22 22 23 22 22
13 14 14 13 14 12 12 12 11 9 6 6 6 4 3 2 2 3 3 2 1 2 2 2 3 4 4 4 4 6 10 13 15 17 19 21 22 23 24 24 24 24 23
9 12 12 12 12 11 11 12 11 11 7 7 5 4 4 4 4 3 3 2 2 2 1 2 3 5 4 3 4 9 13 15 17 19 21 23 24 24 24 24 24 24 24
9 13 12 12 10 10 10 10 10 9 8 9 7 4 3 3 3 3 3 2 1 2 2 2 2 5 4 1 5 12 13 16 19 21 23 24 24 24 24 24 24 25 25
10 11 12 11 10 10 10 9 9 8 7 8 8 7 6 4 3 3 4 4 1 1 2 3 1 3 4 3 8 13 13 17 21 23 23 24 24 24 24 24 25 25 25
6 9 10 11 11 11 11 11 9 9 9 8 8 8 6 4 3 4 4 4 4 2 3 3 2 2 4 6 11 13 12 17 22 23 23 24 24 24 25 25 26 26 26
8 10 11 12 12 12 12 11 11 11 10 9 7 8 6 4 4 3 3 3 3 4 4 3 4 3 5 9 13 15 15 20 21 22 23 24 25 25 26 26 26 26 26
11 12 12 13 13 13 13 13 12 12 12 10 8 7 6 5 4 3 2 2 3 3 5 4 3 3 4 6 12 15 16 16 17 22 25 26 25 25 25 26 26 26 26
11 12 13 13 13 13 13 14 14 12 11 10 8 7 5 4 4 2 2 3 3 4 5 6 3 3 6 7 7 8 13 16 17 23 25 25 25 25 25 25 25 25 26
12 12 13 14 14 13 13 13 13 12 11 9 8 6 5 3 2 1 2 3 3 4 4 4 5 4 5 5 6 7 9 11 17 20 23 24 24 24 25 25 26 27 28
13 13 14 14 14 14 14 13 13 12 10 8 7 5 4 2 2 2 3 4 4 4 4 5 6 5 5 6 5 6 9 7 10 15 20 22 22 24 25 28 29 29 28
14 15 15 15 14 12 12 13 11 10 9 7 5 4 2 1 2 2 3 4 4 4 4 5 6 6 6 5 6 6 11 10 10 10 10 9 12 13 19 25 26 27 28
14 15 14 14 13 11 16 15 11 9 7 6 5 3 2 2 3 5 7 8 8 5 5 5 6 7 8 7 8 9 11 12 10 4 6 10 9 13 11 17 25 28 29
14 14 13 13 13 13 15 14 12 8 6 5 4 2 1 1 3 3 7 9 9 12 13 9 8 9 9 9 10 12 11 12 13 9 10 15 10 13 11 20 27 29 30
12 12 11 11 10 11 13 12 11 7 5 4 3 2 1 3 4 6 6 6 6 7 10 8 8 10 10 10 11 11 11 10 10 9 7 11 12 13 13 13 26 29 29
10 9 9 9 9 8 9 9 9 5 4 3 1 0 2 4 9 11 6 5 7 7 12 16 18 18 20 22 18 9 7 9 12 9 5 5 5 7 10 12 17 23 23
9 9 9 8 7 4 6 7 7 3 3 1 0 2 5 7 10 11 6 5 7 8 8 9 10 13 13 15 16 8 5 8 8 7 4 4 5 6 7 5 7 10 15
Wind_Direction
177 178 180 179 176 168 158 145 135 127 121 118 121 125 122 120 115 109 108 115 118 120 115 106 93 81 70 60 52 43 36 31 27 22 18 15 13 10 6 3 1 358 354
184 182 180 182 181 177 169 159 150 138 130 127 119 124 127 128 125 118 113 115 119 122 120 110 97 81 66 54 45 37 29 23 18 13 8 6 4 1 357 355 352 348 344
190 188 184 185 187 178 163 148 137 128 124 122 116 124 129 136 137 131 126 121 120 122 123 117 104 87 66 47 35 29 19 12 5 359 354 352 351 347 344 343 341 338 334
195 190 189 191 183 170 159 147 141 128 132 135 132 122 126 139 146 147 140 135 129 125 124 124 112 92 62 37 21 14 7 1 351 343 338 336 334 332 332 332 330 328 325
198 193 193 188 175 167 163 161 150 144 151 149 139 118 112 134 157 159 156 153 147 141 132 125 108 88 53 23 7 358 351 346 337 330 324 322 322 321 320 319 319 319 317
198 194 191 182 173 167 168 164 150 128 136 144 124 99 76 103 149 169 175 170 167 159 149 132 116 79 36 9 352 339 334 329 325 320 314 312 311 310 310 311 312 312 311
196 194 191 180 179 182 180 168 146 139 134 143 119 98 45 57 128 166 178 171 177 172 160 148 132 91 18 357 343 329 324 319 316 313 310 306 303 303 304 305 305 305 304
197 196 191 188 186 181 175 175 158 146 144 167 149 138 185 291 259 118 167 179 179 168 161 156 144 120 8 350 342 335 328 320 314 311 307 303 302 301 301 301 301 300 299
200 198 193 188 187 184 186 185 178 162 159 176 184 158 165 210 201 286 6 152 169 163 164 159 148 136 89 36 6 348 340 328 317 311 308 306 304 302 301 299 299 298 297
200 199 194 191 188 189 188 188 181 170 153 162 166 114 109 139 154 188 256 256 201 187 189 181 164 165 136 96 43 5 350 335 321 314 310 307 304 302 300 299 298 298 297
199 198 193 192 190 190 187 180 176 173 166 160 159 150 134 85 111 155 196 223 250 219 217 211 200 180 144 105 51 4 346 333 323 315 310 306 303 301 299 299 298 297 296
196 195 191 191 189 186 181 178 175 172 163 151 150 150 154 156 166 160 168 189 230 272 274 248 212 183 163 117 29 349 340 329 321 315 309 304 302 300 300 299 297 296 294
200 197 190 188 184 178 170 163 162 162 154 150 149 138 125 121 131 135 133 146 196 307 308 279 209 187 180 156 347 337 332 323 317 312 307 303 302 301 299 297 295 293 292
203 186 181 175 167 159 156 152 147 143 136 135 133 125 120 117 118 128 135 138 150 296 292 275 284 210 207 259 319 324 318 314 312 308 305 303 302 300 297 294 293 292 291
170 162 160 154 148 145 143 139 135 131 129 123 122 119 117 114 107 109 124 142 157 214 265 266 269 252 234 277 305 309 302 308 308 307 305 301 299 297 295 293 291 290 289
141 143 143 141 138 137 136 131 129 126 122 119 121 120 117 119 120 121 129 139 159 181 233 247 242 245 267 288 299 306 302 305 308 305 302 300 298 296 293 291 290 289 288
138 140 138 136 135 134 133 129 127 125 122 119 117 118 118 123 123 121 128 153 181 185 233 259 249 260 270 276 291 295 296 291 290 300 301 299 297 295 294 293 292 290 288
132 133 132 130 129 128 127 126 125 123 123 121 116 113 114 115 111 126 162 195 209 207 223 263 267 267 263 272 275 282 294 296 294 298 299 299 298 297 296 294 292 291 290
122 122 123 122 121 119 117 115 115 113 111 111 111 114 119 120 134 171 202 221 230 233 220 244 267 256 264 272 279 281 282 285 291 295 297 298 297 296 296 296 296 295 293
112 111 111 111 111 110 110 110 109 106 105 103 103 108 116 133 189 214 228 238 242 248 245 251 265 267 266 265 266 282 295 284 289 293 291 290 292 295 295 295 294 293 291
103 105 105 104 104 105 108 109 108 111 111 108 103 101 109 147 232 240 252 245 236 243 252 260 273 279 277 278 278 282 296 297 287 278 278 277 283 284 287 289 291 290 288
98 100 103 104 102 104 111 111 112 109 111 112 110 94 65 45 357 341 315 299 285 270 265 262 273 279 284 280 285 289 294 298 299 265 276 287 283 286 285 283 286 289 289
96 96 96 98 100 108 112 112 112 114 116 115 112 98 63 351 353 308 298 300 299 297 294 290 285 282 285 284 284 285 283 283 286 286 292 292 285 285 284 285 288 289 290
92 93 94 96 99 104 108 112 114 110 107 106 111 136 233 292 296 290 267 268 267 274 284 284 266 269 272 274 270 280 288 290 283 278 273 283 287 284 284 281 286 287 288
90 90 91 90 92 96 104 112 112 105 101 101 119 155 295 285 301 309 305 287 286 284 296 298 295 295 298 301 303 302 297 297 296 291 262 261 280 286 283 277 276 282 286
90 87 81 77 82 82 99 102 109 108 103 94 359 305 316 314 310 315 308 292 294 292 290 297 301 301 298 296 299 289 275 282 289 293 254 254 279 305 299 261 256 272 280
Height
1536 1538 1540 1542 1544 1545 1547 1548 1549 1551 1552 1552 1553 1553 1553 1553 1553 1553 1553 1553 1552 1552 1551 1550 1550 1549 1549 1548 1548 1547 1546 1546 1545 1544 1544 1543 1542 1542 1541 1540 1540 1539 1539
1534 1536 1538 1540 1541 1543 1545 1546 1548 1549 1550 1551 1552 1552 1552 1552 1552 1552 1551 1551 1551 1550 1550 1549 1548 1548 1548 1547 1546 1546 1545 1544 1543 1542 1541 1540 1540 1539 1538 1538 1537 1536 1536
1530 1533 1535 1537 1539 1541 1542 1544 1545 1547 1548 1549 1550 1550 1550 1550 1550 1550 1549 1549 1549 1548 1548 1547 1547 1546 1546 1545 1545 1543 1542 1541 1541 1540 1539 1538 1537 1536 1535 1534 1534 1533 1532
1527 1529 1531 1533 1536 1538 1539 1541 1543 1544 1545 1546 1547 1548 1548 1548 1548 1547 1547 1547 1547 1546 1546 1546 1545 1544 1544 1543 1542 1541 1540 1539 1538 1537 1536 1535 1534 1533 1532 1531 1530 1529 1529
1522 1525 1527 1530 1532 1534 1536 1538 1540 1541 1542 1544 1544 1545 1545 1545 1545 1545 1545 1544 1544 1544 1544 1543 1543 1542 1541 1541 1540 1539 1538 1536 1535 1534 1533 1532 1531 1530 1529 1528 1527 1526 1525
1518 1520 1522 1525 1528 1530 1532 1534 1536 1538 1539 1540 1541 1542 1542 1542 1542 1542 1542 1542 1541 1541 1541 1540 1540 1539 1539 1538 1537 1536 1535 1533 1532 1531 1529 1528 1527 1526 1526 1525 1523 1522 1521
1513 1515 1517 1520 1522 1524 1527 1529 1532 1533 1535 1536 1538 1538 1539 1539 1538 1538 1538 1538 1538 1538 1538 1537 1537 1536 1535 1534 1533 1532 1531 1529 1528 1527 1525 1524 1524 1523 1522 1520 1519 1518 1516
1507 1509 1511 1513 1516 1519 1521 1524 1526 1528 1530 1532 1533 1534 1535 1535 1534 1534 1534 1534 1535 1534 1534 1533 1533 1532 1532 1530 1529 1528 1526 1525 1523 1522 1521 1520 1520 1518 1517 1516 1514 1513 1511
1500 1503 1505 1507 1510 1512 1514 1517 1520 1522 1524 1526 1528 1530 1530 1529 1529 1529 1529 1530 1530 1530 1530 1529 1529 1528 1527 1526 1524 1523 1521 1519 1518 1517 1516 1515 1514 1513 1511 1509 1508 1506 1505
1492 1496 1498 1500 1503 1505 1507 1510 1513 1515 1518 1520 1522 1523 1524 1524 1525 1524 1525 1525 1525 1525 1526 1525 1524 1523 1523 1521 1519 1517 1515 1514 1512 1511 1509 1508 1507 1505 1504 1502 1501 1499 1497
1484 1487 1490 1493 1495 1498 1500 1503 1506 1508 1511 1513 1515 1517 1518 1519 1519 1520 1520 1521 1521 1521 1521 1521 1520 1519 1518 1516 1514 1512 1510 1508 1506 1504 1502 1501 1499 1497 1496 1494 1492 1490 1489
1475 1478 1482 1485 1488 1490 1493 1496 1498 1501 1504 1506 1509 1510 1512 1512 1513 1514 1515 1515 1516 1516 1516 1516 1515 1514 1513 1511 1509 1506 1504 1501 1499 1496 1494 1492 1490 1488 1486 1484 1482 1481 1479
1466 1469 1473 1476 1480 1483 1486 1489 1491 1494 1497 1499 1501 1503 1505 1507 1508 1509 1510 1510 1511 1511 1511 1511 1510 1509 1507 1505 1503 1500 1497 1494 1492 1489 1486 1484 1481 1479 1476 1474 1472 1471 1470
1458 1461 1465 1468 1472 1475 1478 1482 1485 1488 1490 1493 1495 1496 1499 1501 1502 1503 1504 1505 1505 1505 1504 1505 1504 1503 1501 1499 1496 1493 1489 1486 1483 1480 1478 1475 1472 1469 1467 1464 1463 1461 1460
1450 1454 1457 1461 1465 1468 1472 1475 1478 1481 1484 1486 1489 1490 1492 1494 1497 1497 1498 1499 1501 1499 1498 1498 1498 1497 1495 1492 1489 1485 1482 1478 1475 1472 1469 1466 1463 1460 1458 1456 1454 1452 1451
1443 1447 1450 1454 1458 1462 1465 1469 1472 1475 1478 1481 1483 1486 1487 1489 1491 1492 1493 1494 1494 1494 1492 1491 1491 1490 1488 1486 1483 1479 1474 1471 1467 1464 1460 1457 1454 1451 1449 1447 1445 1443 1442
1438 1441 1445 1448 1452 1456 1460 1464 1467 1470 1473 1476 1479 1481 1483 1485 1486 1487 1488 1489 1488 1487 1485 1484 1484 1483 1480 1478 1475 1472 1467 1463 1459 1456 1453 1449 1446 1443 1441 1438 1436 1434 1433
1433 1437 1441 1444 1448 1452 1456 1459 1463 1466 1470 1473 1475 1477 1480 1481 1482 1483 1483 1483 1483 1482 1480 1477 1476 1475 1473 1471 1467 1463 1459 1455 1452 1448 1445 1441 1438 1435 1432 1430 1428 1426 1424
1430 1434 1438 1441 1445 1449 1452 1456 1460 1464 1467 1470 1472 1474 1476 1477 1478 1478 1478 1478 1478 1476 1474 1471 1469 1467 1465 1463 1459 1455 1451 1448 1444 1441 1437 1434 1431 1428 1425 1422 1420 1417 1414
1428 1432 1435 1439 1443 1447 1451 1455 1458 1462 1465 1467 1469 1471 1473 1473 1473 1474 1474 1473 1472 1470 1468 1466 1463 1460 1458 1455 1452 1447 1442 1439 1436 1433 1430 1426 1423 1420 1418 1414 1411 1407 1405
1427 1431 1434 1438 1443 1447 1451 1454 1458 1461 1463 1465 1467 1468 1468 1469 1469 1469 1469 1468 1467 1464 1462 1460 1457 1453 1451 1448 1445 1441 1436 1431 1427 1426 1421 1418 1415 1411 1408 1405 1402 1398 1395
1428 1431 1435 1439 1444 1448 1452 1455 1458 1460 1462 1463 1464 1465 1465 1465 1465 1464 1464 1463 1462 1460 1457 1454 1451 1448 1445 1443 1439 1435 1431 1426 1420 1419 1414 1409 1408 1402 1400 1396 1393 1389 1386
1431 1434 1438 1442 1446 1449 1452 1455 1457 1459 1460 1461 1461 1462 1462 1462 1461 1460 1458 1457 1456 1454 1452 1450 1445 1442 1440 1437 1434 1429 1426 1421 1416 1413 1409 1400 1399 1394 1391 1387 1384 1381 1378
1435 1438 1442 1445 1448 1451 1453 1455 1456 1457 1458 1459 1459 1459 1459 1458 1457 1455 1452 1451 1449 1448 1446 1443 1440 1437 1434 1431 1429 1425 1420 1415 1410 1407 1404 1394 1389 1385 1381 1378 1376 1372 1369
1440 1442 1445 1448 1450 1452 1453 1454 1455 1456 1457 1457 1457 1456 1455 1454 1452 1449 1448 1445 1443 1442 1440 1438 1435 1432 1430 1427 1423 1419 1414 1408 1401 1397 1396 1389 1381 1375 1369 1366 1365 1363 1360
1444 1446 1448 1450 1451 1453 1454 1454 1455 1455 1455 1455 1454 1452 1451 1449 1447 1445 1443 1441 1438 1436 1433 1431 1429 1427 1424 1421 1418 1414 1409 1403 1397 1389 1386 1383 1376 1371 1359 1352 1353 1352 1349